Time,TemperatureF,DewpointF,PressureIn,WindDirection,WindDirectionDegrees,WindSpeedMPH,WindSpeedGustMPH,Humidity,HourlyPrecipIn,Conditions,Clouds,dailyrainin,SoftwareType,DateUTC
2013-07-01 00:02:00,75.7,55.3,29.98,West,270,0.0,0.0,49,0.00,,,0.00,WUHU21623XXSP,2013-07-01 07:02:00,
2013-07-01 00:07:00,75.6,55.1,29.98,West,270,0.0,0.0,49,0.00,,,0.00,WUHU21623XXSP,2013-07-01 07:07:00,
2013-07-01 00:12:00,75.4,55.0,29.98,NW,315,0.0,0.0,49,0.00,,,0.00,WUHU21623XXSP,2013-07-01 07:12:00,
2013-07-01 00:17:00,75.0,54.6,29.99,North,0,0.0,0.7,49,0.00,,,0.00,WUHU21623XXSP,2013-07-01 07:17:00,
2013-07-01 00:23:00,75.0,54.6,29.99,North,0,1.1,1.1,49,0.00,,,0.00,WUHU21623XXSP,2013-07-01 07:23:00,
2013-07-01 00:28:00,74.8,55.0,29.99,SW,225,2.0,2.0,50,0.00,,,0.00,WUHU21623XXSP,2013-07-01 07:28:00,
2013-07-01 00:34:00,74.8,55.0,29.99,WSW,247,0.0,2.0,50,0.00,,,0.00,WUHU21623XXSP,2013-07-01 07:34:00,
2013-07-01 00:39:00,74.8,55.0,29.98,NNW,337,0.0,0.0,50,0.00,,,0.00,WUHU21623XXSP,2013-07-01 07:39:00,
2013-07-01 00:44:00,74.8,55.0,29.98,West,270,0.0,0.0,50,0.00,,,0.00,WUHU21623XXSP,2013-07-01 07:44:00,
2013-07-01 00:49:00,74.8,55.0,29.99,WSW,247,0.9,0.9,50,0.00,,,0.00,WUHU21623XXSP,2013-07-01 07:49:00,
2013-07-01 00:55:00,75.0,54.6,29.99,WSW,247,0.0,0.9,49,0.00,,,0.00,WUHU21623XXSP,2013-07-01 07:55:00,
2013-07-01 01:00:00,75.0,54.6,29.99,WSW,247,0.0,0.4,49,0.00,,,0.00,WUHU21623XXSP,2013-07-01 08:00:00,
2013-07-01 01:05:00,75.0,54.6,29.98,WNW,292,0.0,0.0,49,0.00,,,0.00,WUHU21623XXSP,2013-07-01 08:05:00,
2013-07-01 01:10:00,75.0,55.2,29.99,West,270,0.0,0.0,50,0.00,,,0.00,WUHU21623XXSP,2013-07-01 08:10:00,
2013-07-01 01:15:00,74.8,55.0,30.00,West,270,0.9,0.9,50,0.00,,,0.00,WUHU21623XXSP,2013-07-01 08:15:00,
2013-07-01 01:21:00,74.8,55.0,30.00,WSW,247,0.0,0.9,50,0.00,,,0.00,WUHU21623XXSP,2013-07-01 08:21:00,
2013-07-01 01:26:00,74.8,55.0,29.99,West,270,2.0,2.0,50,0.00,,,0.00,WUHU21623XXSP,2013-07-01 08:26:00,
2013-07-01 01:32:00,74.5,56.7,29.97,WNW,292,0.0,2.0,54,0.00,,,0.00,WUHU21623XXSP,2013-07-01 08:32:00,
2013-07-01 01:37:00,73.9,57.7,29.98,SW,225,0.0,0.0,57,0.00,,,0.00,WUHU21623XXSP,2013-07-01 08:37:00,
2013-07-01 01:42:00,73.2,57.5,29.99,WSW,247,0.0,0.0,58,0.00,,,0.00,WUHU21623XXSP,2013-07-01 08:42:00,
2013-07-01 01:48:00,72.3,57.7,29.98,WSW,247,0.0,0.0,60,0.00,,,0.00,WUHU21623XXSP,2013-07-01 08:48:00,
2013-07-01 01:53:00,71.8,57.2,29.98,WSW,247,0.0,0.0,60,0.00,,,0.00,WUHU21623XXSP,2013-07-01 08:53:00,
2013-07-01 01:58:00,71.4,57.3,29.98,West,270,0.0,0.0,61,0.00,,,0.00,WUHU21623XXSP,2013-07-01 08:58:00,
2013-07-01 02:03:00,71.2,57.1,29.98,West,270,0.0,0.0,61,0.00,,,0.00,WUHU21623XXSP,2013-07-01 09:03:00,
2013-07-01 02:08:00,70.9,56.8,30.00,West,270,0.0,0.0,61,0.00,,,0.00,WUHU21623XXSP,2013-07-01 09:08:00,
2013-07-01 02:14:00,70.7,56.6,30.00,WSW,247,0.0,0.0,61,0.00,,,0.00,WUHU21623XXSP,2013-07-01 09:14:00,
2013-07-01 02:19:00,70.7,56.2,30.00,SSW,202,3.1,3.1,60,0.00,,,0.00,WUHU21623XXSP,2013-07-01 09:19:00,
2013-07-01 02:24:00,70.7,56.2,30.00,SW,225,0.0,3.1,60,0.00,,,0.00,WUHU21623XXSP,2013-07-01 09:24:00,
2013-07-01 02:29:00,70.9,55.9,29.99,NNE,22,0.0,0.0,59,0.00,,,0.00,WUHU21623XXSP,2013-07-01 09:29:00,
2013-07-01 02:35:00,71.1,56.5,29.98,NE,45,0.0,0.0,60,0.00,,,0.00,WUHU21623XXSP,2013-07-01 09:35:00,
2013-07-01 02:41:00,70.9,56.4,29.97,ENE,67,0.0,0.0,60,0.00,,,0.00,WUHU21623XXSP,2013-07-01 09:41:00,
2013-07-01 02:46:00,70.9,56.8,29.97,West,270,3.4,3.4,61,0.00,,,0.00,WUHU21623XXSP,2013-07-01 09:46:00,
2013-07-01 02:51:00,70.7,55.7,29.99,SSW,202,0.0,4.3,59,0.00,,,0.00,WUHU21623XXSP,2013-07-01 09:51:00,
2013-07-01 02:56:00,70.7,55.7,29.98,SSW,202,0.0,4.3,59,0.00,,,0.00,WUHU21623XXSP,2013-07-01 09:56:00,
2013-07-01 03:01:00,70.7,55.7,29.99,SSW,202,0.0,0.0,59,0.00,,,0.00,WUHU21623XXSP,2013-07-01 10:01:00,
2013-07-01 03:07:00,70.3,55.4,29.98,SSW,202,0.0,1.8,59,0.00,,,0.00,WUHU21623XXSP,2013-07-01 10:07:00,
2013-07-01 03:12:00,70.3,55.9,29.98,SSW,202,0.0,0.0,60,0.00,,,0.00,WUHU21623XXSP,2013-07-01 10:12:00,
2013-07-01 03:17:00,70.0,56.0,29.98,SSW,202,0.0,0.0,61,0.00,,,0.00,WUHU21623XXSP,2013-07-01 10:17:00,
2013-07-01 03:22:00,69.6,55.6,29.98,SSW,202,0.0,0.0,61,0.00,,,0.00,WUHU21623XXSP,2013-07-01 10:22:00,
2013-07-01 03:28:00,69.4,55.9,29.99,SW,225,0.0,0.0,62,0.00,,,0.00,WUHU21623XXSP,2013-07-01 10:28:00,
2013-07-01 03:33:00,69.1,55.5,30.00,SW,225,0.0,0.0,62,0.00,,,0.00,WUHU21623XXSP,2013-07-01 10:33:00,
2013-07-01 03:39:00,68.9,55.8,30.00,SW,225,0.0,0.0,63,0.00,,,0.00,WUHU21623XXSP,2013-07-01 10:39:00,
2013-07-01 03:44:00,68.7,55.6,30.00,SW,225,0.0,0.0,63,0.00,,,0.00,WUHU21623XXSP,2013-07-01 10:44:00,
2013-07-01 03:49:00,68.7,55.6,30.00,West,270,0.0,0.0,63,0.00,,,0.00,WUHU21623XXSP,2013-07-01 10:49:00,
2013-07-01 03:55:00,68.7,56.0,30.00,WSW,247,0.0,0.0,64,0.00,,,0.00,WUHU21623XXSP,2013-07-01 10:55:00,
2013-07-01 04:00:00,68.5,55.8,30.00,WSW,247,0.0,0.0,64,0.00,,,0.00,WUHU21623XXSP,2013-07-01 11:00:00,
2013-07-01 04:05:00,68.5,55.8,30.00,WSW,247,0.0,0.0,64,0.00,,,0.00,WUHU21623XXSP,2013-07-01 11:05:00,
2013-07-01 04:10:00,68.4,55.7,30.01,WSW,247,0.0,0.0,64,0.00,,,0.00,WUHU21623XXSP,2013-07-01 11:10:00,
2013-07-01 04:16:00,68.4,55.7,30.00,North,0,0.0,0.0,64,0.00,,,0.00,WUHU21623XXSP,2013-07-01 11:16:00,
2013-07-01 04:21:00,68.5,55.4,30.00,West,270,0.0,0.0,63,0.00,,,0.00,WUHU21623XXSP,2013-07-01 11:21:00,
2013-07-01 04:26:00,68.7,55.6,29.99,NE,45,0.0,0.0,63,0.00,,,0.00,WUHU21623XXSP,2013-07-01 11:26:00,
2013-07-01 04:31:00,68.9,55.3,29.99,NNE,22,1.1,1.1,62,0.00,,,0.00,WUHU21623XXSP,2013-07-01 11:31:00,
2013-07-01 04:36:00,69.1,55.5,29.99,NE,45,0.0,1.1,62,0.00,,,0.00,WUHU21623XXSP,2013-07-01 11:36:00,
2013-07-01 04:42:00,69.1,55.1,29.99,North,0,0.0,0.7,61,0.00,,,0.00,WUHU21623XXSP,2013-07-01 11:42:00,
2013-07-01 04:48:00,69.1,55.5,29.99,North,0,0.0,0.0,62,0.00,,,0.00,WUHU21623XXSP,2013-07-01 11:48:00,
2013-07-01 04:53:00,69.1,55.5,29.99,North,0,0.0,0.0,62,0.00,,,0.00,WUHU21623XXSP,2013-07-01 11:53:00,
2013-07-01 04:58:00,68.9,55.3,29.99,North,0,0.0,0.0,62,0.00,,,0.00,WUHU21623XXSP,2013-07-01 11:58:00,
2013-07-01 05:03:00,68.9,55.3,29.99,North,0,0.0,0.0,62,0.00,,,0.00,WUHU21623XXSP,2013-07-01 12:03:00,
2013-07-01 05:09:00,68.7,55.2,29.99,West,270,0.0,0.0,62,0.00,,,0.00,WUHU21623XXSP,2013-07-01 12:09:00,
2013-07-01 05:14:00,68.7,55.2,29.99,West,270,0.0,0.0,62,0.00,,,0.00,WUHU21623XXSP,2013-07-01 12:14:00,
2013-07-01 05:19:00,68.5,55.0,29.99,West,270,0.0,0.0,62,0.00,,,0.00,WUHU21623XXSP,2013-07-01 12:19:00,
2013-07-01 05:24:00,68.2,54.6,30.00,West,270,0.0,0.0,62,0.00,,,0.00,WUHU21623XXSP,2013-07-01 12:24:00,
2013-07-01 05:29:00,67.8,54.7,29.99,West,270,0.0,0.0,63,0.00,,,0.00,WUHU21623XXSP,2013-07-01 12:29:00,
2013-07-01 05:35:00,67.6,55.0,30.00,WSW,247,0.0,0.0,64,0.00,,,0.00,WUHU21623XXSP,2013-07-01 12:35:00,
2013-07-01 05:40:00,67.3,54.6,30.00,WSW,247,0.0,0.0,64,0.00,,,0.00,WUHU21623XXSP,2013-07-01 12:40:00,
2013-07-01 05:45:00,66.9,54.7,30.00,WSW,247,0.0,0.0,65,0.00,,,0.00,WUHU21623XXSP,2013-07-01 12:45:00,
2013-07-01 05:50:00,66.7,55.0,30.00,West,270,0.0,0.0,66,0.00,,,0.00,WUHU21623XXSP,2013-07-01 12:50:00,
2013-07-01 05:56:00,66.7,55.4,30.01,West,270,0.0,0.0,67,0.00,,,0.00,WUHU21623XXSP,2013-07-01 12:56:00,
2013-07-01 06:02:00,66.6,55.2,30.01,West,270,0.0,0.0,67,0.00,,,0.00,WUHU21623XXSP,2013-07-01 13:02:00,
2013-07-01 06:07:00,66.4,55.0,30.00,West,270,0.0,0.0,67,0.00,,,0.00,WUHU21623XXSP,2013-07-01 13:07:00,
2013-07-01 06:12:00,66.4,55.5,30.01,WSW,247,0.0,0.0,68,0.00,,,0.00,WUHU21623XXSP,2013-07-01 13:12:00,
2013-07-01 06:17:00,66.4,55.5,30.01,WSW,247,0.0,0.0,68,0.00,,,0.00,WUHU21623XXSP,2013-07-01 13:17:00,
2013-07-01 06:22:00,66.4,55.5,30.01,WSW,247,0.0,0.0,68,0.00,,,0.00,WUHU21623XXSP,2013-07-01 13:22:00,
2013-07-01 06:28:00,66.4,55.5,30.01,WSW,247,0.0,0.0,68,0.00,,,0.00,WUHU21623XXSP,2013-07-01 13:28:00,
2013-07-01 06:33:00,66.4,55.9,30.01,WSW,247,0.0,0.0,69,0.00,,,0.00,WUHU21623XXSP,2013-07-01 13:33:00,
2013-07-01 06:38:00,66.6,56.0,30.01,WSW,247,0.0,0.0,69,0.00,,,0.00,WUHU21623XXSP,2013-07-01 13:38:00,
2013-07-01 06:43:00,66.7,56.2,30.01,WSW,247,0.0,0.0,69,0.00,,,0.00,WUHU21623XXSP,2013-07-01 13:43:00,
2013-07-01 06:49:00,66.9,56.4,30.01,WSW,247,0.0,0.0,69,0.00,,,0.00,WUHU21623XXSP,2013-07-01 13:49:00,
2013-07-01 06:54:00,66.9,56.4,30.01,WSW,247,0.0,0.0,69,0.00,,,0.00,WUHU21623XXSP,2013-07-01 13:54:00,
2013-07-01 06:59:00,67.3,57.2,30.01,WSW,247,0.0,0.0,70,0.00,,,0.00,WUHU21623XXSP,2013-07-01 13:59:00,
2013-07-01 07:04:00,67.6,57.1,30.01,WSW,247,0.0,0.0,69,0.00,,,0.00,WUHU21623XXSP,2013-07-01 14:04:00,
2013-07-01 07:10:00,68.0,57.5,30.01,WSW,247,0.0,0.0,69,0.00,,,0.00,WUHU21623XXSP,2013-07-01 14:10:00,
2013-07-01 07:15:00,68.5,58.0,30.01,West,270,0.0,0.0,69,0.00,,,0.00,WUHU21623XXSP,2013-07-01 14:15:00,
2013-07-01 07:20:00,68.9,57.9,30.01,West,270,0.0,0.0,68,0.00,,,0.00,WUHU21623XXSP,2013-07-01 14:20:00,
2013-07-01 07:25:00,69.6,58.1,30.01,WSW,247,0.0,0.0,67,0.00,,,0.00,WUHU21623XXSP,2013-07-01 14:25:00,
2013-07-01 07:31:00,70.3,58.4,30.01,West,270,0.0,0.0,66,0.00,,,0.00,WUHU21623XXSP,2013-07-01 14:31:00,
2013-07-01 07:36:00,70.7,57.9,30.01,NNW,337,0.0,0.0,64,0.00,,,0.00,WUHU21623XXSP,2013-07-01 14:36:00,
2013-07-01 07:42:00,71.4,57.7,30.01,North,0,0.0,0.0,62,0.00,,,0.00,WUHU21623XXSP,2013-07-01 14:42:00,
2013-07-01 07:47:00,72.3,58.5,30.01,North,0,0.0,0.0,62,0.00,,,0.00,WUHU21623XXSP,2013-07-01 14:47:00,
2013-07-01 07:52:00,73.0,58.7,30.01,West,270,0.0,0.0,61,0.00,,,0.00,WUHU21623XXSP,2013-07-01 14:52:00,
2013-07-01 07:58:00,74.3,59.0,30.01,NE,45,0.7,0.7,59,0.00,,,0.00,WUHU21623XXSP,2013-07-01 14:58:00,
2013-07-01 08:03:00,75.0,58.7,30.01,West,270,0.0,0.7,57,0.00,,,0.00,WUHU21623XXSP,2013-07-01 15:03:00,
2013-07-01 08:08:00,76.5,59.6,30.01,North,0,0.0,5.8,56,0.00,,,0.00,WUHU21623XXSP,2013-07-01 15:08:00,
2013-07-01 08:13:00,77.4,59.9,30.01,WNW,292,1.1,5.8,55,0.00,,,0.00,WUHU21623XXSP,2013-07-01 15:13:00,
2013-07-01 08:18:00,78.3,60.2,30.01,West,270,0.0,4.0,54,0.00,,,0.00,WUHU21623XXSP,2013-07-01 15:18:00,
2013-07-01 08:24:00,79.3,60.2,30.01,WNW,292,0.0,4.0,52,0.00,,,0.00,WUHU21623XXSP,2013-07-01 15:24:00,
2013-07-01 08:29:00,80.4,60.6,30.01,North,0,0.0,1.8,51,0.00,,,0.00,WUHU21623XXSP,2013-07-01 15:29:00,
2013-07-01 08:34:00,81.7,61.2,30.01,NW,315,2.7,2.9,50,0.00,,,0.00,WUHU21623XXSP,2013-07-01 15:34:00,
2013-07-01 08:40:00,82.2,61.1,30.01,NNE,22,8.1,8.1,49,0.00,,,0.00,WUHU21623XXSP,2013-07-01 15:40:00,
2013-07-01 08:45:00,83.1,60.7,30.01,NNW,337,6.0,8.1,47,0.00,,,0.00,WUHU21623XXSP,2013-07-01 15:45:00,
2013-07-01 08:51:00,83.5,60.5,30.01,NE,45,2.7,6.0,46,0.00,,,0.00,WUHU21623XXSP,2013-07-01 15:51:00,
2013-07-01 08:56:00,84.0,61.0,30.01,North,0,0.0,2.7,46,0.00,,,0.00,WUHU21623XXSP,2013-07-01 15:56:00,
2013-07-01 09:01:00,84.6,60.9,30.01,North,0,0.0,1.6,45,0.00,,,0.00,WUHU21623XXSP,2013-07-01 16:01:00,
2013-07-01 09:06:00,85.5,61.7,30.01,NNW,337,2.5,2.5,45,0.00,,,0.00,WUHU21623XXSP,2013-07-01 16:06:00,
2013-07-01 09:12:00,85.8,61.4,30.01,NE,45,4.7,4.7,44,0.00,,,0.00,WUHU21623XXSP,2013-07-01 16:12:00,
2013-07-01 09:17:00,86.2,61.1,30.01,ENE,67,2.9,4.7,43,0.00,,,0.00,WUHU21623XXSP,2013-07-01 16:17:00,
2013-07-01 09:22:00,86.4,61.2,30.01,West,270,2.2,4.7,43,0.00,,,0.00,WUHU21623XXSP,2013-07-01 16:22:00,
2013-07-01 09:27:00,87.1,61.9,30.01,ENE,67,2.7,4.7,43,0.00,,,0.00,WUHU21623XXSP,2013-07-01 16:27:00,
2013-07-01 09:33:00,87.4,62.2,30.01,North,0,0.0,4.0,43,0.00,,,0.00,WUHU21623XXSP,2013-07-01 16:33:00,
2013-07-01 09:38:00,87.6,61.1,30.01,NNE,22,3.1,4.0,41,0.00,,,0.00,WUHU21623XXSP,2013-07-01 16:38:00,
2013-07-01 09:43:00,87.6,61.7,30.01,NNW,337,1.1,3.1,42,0.00,,,0.00,WUHU21623XXSP,2013-07-01 16:43:00,
2013-07-01 09:49:00,88.2,62.2,30.01,North,0,0.0,1.8,42,0.00,,,0.00,WUHU21623XXSP,2013-07-01 16:49:00,
2013-07-01 09:54:00,88.5,62.5,30.01,WSW,247,2.7,2.7,42,0.00,,,0.00,WUHU21623XXSP,2013-07-01 16:54:00,
2013-07-01 09:59:00,89.2,62.4,30.01,NNE,22,0.0,3.1,41,0.00,,,0.00,WUHU21623XXSP,2013-07-01 16:59:00,
2013-07-01 10:05:00,89.2,61.8,30.01,NE,45,5.4,6.7,40,0.00,,,0.00,WUHU21623XXSP,2013-07-01 17:05:00,
2013-07-01 10:10:00,89.8,62.9,30.01,NNE,22,4.3,6.7,41,0.00,,,0.00,WUHU21623XXSP,2013-07-01 17:10:00,
2013-07-01 10:15:00,90.1,62.5,30.01,NE,45,0.0,5.1,40,0.00,,,0.00,WUHU21623XXSP,2013-07-01 17:15:00,
2013-07-01 10:20:00,90.3,62.7,30.01,ENE,67,0.0,0.0,40,0.00,,,0.00,WUHU21623XXSP,2013-07-01 17:20:00,
2013-07-01 10:26:00,90.7,62.2,30.01,NE,45,3.1,3.1,39,0.00,,,0.00,WUHU21623XXSP,2013-07-01 17:26:00,
2013-07-01 10:31:00,90.3,62.7,30.02,NE,45,0.0,3.1,40,0.00,,,0.00,WUHU21623XXSP,2013-07-01 17:31:00,
2013-07-01 10:36:00,90.3,61.9,30.01,NNW,337,0.0,2.9,39,0.00,,,0.00,WUHU21623XXSP,2013-07-01 17:36:00,
2013-07-01 10:41:00,90.5,62.9,30.01,East,90,0.0,2.9,40,0.00,,,0.00,WUHU21623XXSP,2013-07-01 17:41:00,
2013-07-01 10:46:00,91.0,62.6,30.01,ENE,67,0.0,1.3,39,0.00,,,0.00,WUHU21623XXSP,2013-07-01 17:46:00,
2013-07-01 10:52:00,91.0,63.4,30.01,NNE,22,0.0,1.3,40,0.00,,,0.00,WUHU21623XXSP,2013-07-01 17:52:00,
2013-07-01 10:58:00,91.9,64.2,30.01,East,90,0.0,7.2,40,0.00,,,0.00,WUHU21623XXSP,2013-07-01 17:58:00,
2013-07-01 11:03:00,92.5,63.8,30.01,NE,45,0.0,0.7,39,0.00,,,0.00,WUHU21623XXSP,2013-07-01 18:03:00,
2013-07-01 11:08:00,93.0,64.3,30.01,North,0,1.8,5.4,39,0.00,,,0.00,WUHU21623XXSP,2013-07-01 18:08:00,
2013-07-01 11:13:00,93.6,64.0,30.01,East,90,2.9,5.4,38,0.00,,,0.00,WUHU21623XXSP,2013-07-01 18:13:00,
2013-07-01 11:19:00,93.0,61.9,30.01,NE,45,4.7,4.7,36,0.00,,,0.00,WUHU21623XXSP,2013-07-01 18:19:00,
2013-07-01 11:24:00,92.8,63.4,30.01,NNE,22,6.0,6.0,38,0.00,,,0.00,WUHU21623XXSP,2013-07-01 18:24:00,
2013-07-01 11:29:00,93.0,63.5,30.01,West,270,0.0,6.0,38,0.00,,,0.00,WUHU21623XXSP,2013-07-01 18:29:00,
2013-07-01 11:34:00,93.6,63.2,30.01,ENE,67,0.0,2.7,37,0.00,,,0.00,WUHU21623XXSP,2013-07-01 18:34:00,
2013-07-01 11:39:00,93.7,63.4,30.01,NE,45,2.5,2.7,37,0.00,,,0.00,WUHU21623XXSP,2013-07-01 18:39:00,
2013-07-01 11:45:00,93.9,63.5,30.01,NNW,337,0.0,6.0,37,0.00,,,0.00,WUHU21623XXSP,2013-07-01 18:45:00,
2013-07-01 11:50:00,93.9,63.5,30.01,WSW,247,7.4,7.4,37,0.00,,,0.00,WUHU21623XXSP,2013-07-01 18:50:00,
2013-07-01 11:55:00,94.3,63.8,30.01,WSW,247,0.0,7.4,37,0.00,,,0.00,WUHU21623XXSP,2013-07-01 18:55:00,
2013-07-01 12:00:00,94.6,62.5,30.01,NE,45,0.0,1.3,35,0.00,,,0.00,WUHU21623XXSP,2013-07-01 19:00:00,
2013-07-01 12:06:00,94.6,62.5,30.01,SSW,202,0.0,3.6,35,0.00,,,0.00,WUHU21623XXSP,2013-07-01 19:06:00,
2013-07-01 12:12:00,94.6,62.5,30.01,NNE,22,2.0,4.3,35,0.00,,,0.00,WUHU21623XXSP,2013-07-01 19:12:00,
2013-07-01 12:17:00,94.6,61.7,30.01,NNE,22,0.0,5.8,34,0.00,,,0.00,WUHU21623XXSP,2013-07-01 19:17:00,
2013-07-01 12:22:00,94.5,61.6,30.00,ESE,112,0.0,7.2,34,0.00,,,0.00,WUHU21623XXSP,2013-07-01 19:22:00,
2013-07-01 12:27:00,94.3,62.2,30.00,NNE,22,0.0,7.2,35,0.00,,,0.00,WUHU21623XXSP,2013-07-01 19:27:00,
2013-07-01 12:33:00,94.8,62.7,30.01,NE,45,2.7,4.5,35,0.00,,,0.00,WUHU21623XXSP,2013-07-01 19:33:00,
2013-07-01 12:38:00,95.4,62.3,30.01,NNE,22,1.3,4.5,34,0.00,,,0.00,WUHU21623XXSP,2013-07-01 19:38:00,
2013-07-01 12:43:00,95.2,61.4,30.01,South,180,1.6,3.1,33,0.00,,,0.00,WUHU21623XXSP,2013-07-01 19:43:00,
2013-07-01 12:48:00,95.5,62.5,30.01,North,0,0.0,3.1,34,0.00,,,0.00,WUHU21623XXSP,2013-07-01 19:48:00,
2013-07-01 12:53:00,95.9,62.0,30.01,NE,45,5.6,7.2,33,0.00,,,0.00,WUHU21623XXSP,2013-07-01 19:53:00,
2013-07-01 12:59:00,96.1,62.1,30.01,North,0,2.0,7.2,33,0.00,,,0.00,WUHU21623XXSP,2013-07-01 19:59:00,
2013-07-01 13:05:00,96.6,62.6,30.01,ENE,67,2.5,3.6,33,0.00,,,0.00,WUHU21623XXSP,2013-07-01 20:05:00,
2013-07-01 13:10:00,96.6,62.6,30.01,NNW,337,0.0,9.2,33,0.00,,,0.00,WUHU21623XXSP,2013-07-01 20:10:00,
2013-07-01 13:15:00,96.4,62.4,30.00,WNW,292,0.0,9.2,33,0.00,,,0.00,WUHU21623XXSP,2013-07-01 20:15:00,
2013-07-01 13:20:00,96.6,62.6,30.00,NNE,22,0.9,0.9,33,0.00,,,0.00,WUHU21623XXSP,2013-07-01 20:20:00,
2013-07-01 13:26:00,96.6,61.8,30.00,NE,45,2.0,7.8,32,0.00,,,0.00,WUHU21623XXSP,2013-07-01 20:26:00,
2013-07-01 13:31:00,96.6,62.6,30.00,ENE,67,4.7,7.8,33,0.00,,,0.00,WUHU21623XXSP,2013-07-01 20:31:00,
2013-07-01 13:36:00,97.2,63.1,30.00,NE,45,0.0,4.7,33,0.00,,,0.00,WUHU21623XXSP,2013-07-01 20:36:00,
2013-07-01 13:42:00,97.5,62.6,30.00,ENE,67,0.0,2.9,32,0.00,,,0.00,WUHU21623XXSP,2013-07-01 20:42:00,
2013-07-01 13:47:00,97.5,63.4,30.00,NE,45,1.3,6.0,33,0.00,,,0.00,WUHU21623XXSP,2013-07-01 20:47:00,
2013-07-01 13:52:00,97.5,63.4,30.00,NE,45,6.5,6.5,33,0.00,,,0.00,WUHU21623XXSP,2013-07-01 20:52:00,
2013-07-01 13:57:00,97.9,62.9,30.00,SE,135,0.0,6.5,32,0.00,,,0.00,WUHU21623XXSP,2013-07-01 20:57:00,
2013-07-01 14:03:00,97.9,63.7,30.00,South,180,0.0,2.9,33,0.00,,,0.00,WUHU21623XXSP,2013-07-01 21:03:00,
2013-07-01 14:08:00,97.7,63.6,30.00,WSW,247,2.5,5.8,33,0.00,,,0.00,WUHU21623XXSP,2013-07-01 21:08:00,
2013-07-01 14:13:00,98.2,63.2,30.00,North,0,0.7,2.5,32,0.00,,,0.00,WUHU21623XXSP,2013-07-01 21:13:00,
2013-07-01 14:19:00,98.4,64.2,30.00,NNW,337,6.0,6.0,33,0.00,,,0.00,WUHU21623XXSP,2013-07-01 21:19:00,
2013-07-01 14:24:00,98.6,63.5,30.00,NNE,22,5.1,6.0,32,0.00,,,0.00,WUHU21623XXSP,2013-07-01 21:24:00,
2013-07-01 14:29:00,98.4,63.4,29.99,SE,135,1.8,5.1,32,0.00,,,0.00,WUHU21623XXSP,2013-07-01 21:29:00,
2013-07-01 14:34:00,98.4,63.4,30.00,ENE,67,0.9,2.9,32,0.00,,,0.00,WUHU21623XXSP,2013-07-01 21:34:00,
2013-07-01 14:40:00,98.4,63.4,30.00,NE,45,0.0,2.7,32,0.00,,,0.00,WUHU21623XXSP,2013-07-01 21:40:00,
2013-07-01 14:45:00,98.4,63.4,30.00,NNW,337,0.0,6.5,32,0.00,,,0.00,WUHU21623XXSP,2013-07-01 21:45:00,
2013-07-01 14:50:00,98.6,62.7,30.00,North,0,12.3,12.3,31,0.00,,,0.00,WUHU21623XXSP,2013-07-01 21:50:00,
2013-07-01 14:55:00,98.4,63.4,30.00,West,270,0.0,12.3,32,0.00,,,0.00,WUHU21623XXSP,2013-07-01 21:55:00,
2013-07-01 15:01:00,98.4,63.4,30.00,West,270,2.2,2.2,32,0.00,,,0.00,WUHU21623XXSP,2013-07-01 22:01:00,
2013-07-01 15:06:00,99.0,63.9,30.00,ENE,67,0.0,4.7,32,0.00,,,0.00,WUHU21623XXSP,2013-07-01 22:06:00,
2013-07-01 15:11:00,99.1,63.2,30.00,NE,45,4.9,7.2,31,0.00,,,0.00,WUHU21623XXSP,2013-07-01 22:11:00,
2013-07-01 15:16:00,98.4,62.5,30.00,ENE,67,2.2,7.2,31,0.00,,,0.00,WUHU21623XXSP,2013-07-01 22:16:00,
2013-07-01 15:22:00,98.4,62.5,29.99,NE,45,2.7,5.4,31,0.00,,,0.00,WUHU21623XXSP,2013-07-01 22:22:00,
2013-07-01 15:27:00,98.4,63.4,29.99,WSW,247,4.9,4.9,32,0.00,,,0.00,WUHU21623XXSP,2013-07-01 22:27:00,
2013-07-01 15:33:00,98.4,63.4,29.99,West,270,1.3,4.9,32,0.00,,,0.00,WUHU21623XXSP,2013-07-01 22:33:00,
2013-07-01 15:38:00,99.0,63.9,30.00,WSW,247,2.5,7.4,32,0.00,,,0.00,WUHU21623XXSP,2013-07-01 22:38:00,
2013-07-01 15:43:00,99.1,63.2,29.99,WSW,247,4.3,7.4,31,0.00,,,0.00,WUHU21623XXSP,2013-07-01 22:43:00,
2013-07-01 15:48:00,99.1,63.2,29.99,WSW,247,0.0,6.9,31,0.00,,,0.00,WUHU21623XXSP,2013-07-01 22:48:00,
2013-07-01 15:54:00,99.1,63.2,29.99,WSW,247,5.6,6.9,31,0.00,,,0.00,WUHU21623XXSP,2013-07-01 22:54:00,
2013-07-01 15:59:00,99.1,63.2,29.99,WSW,247,2.0,5.6,31,0.00,,,0.00,WUHU21623XXSP,2013-07-01 22:59:00,
2013-07-01 16:04:00,99.0,63.0,29.99,WSW,247,0.0,2.0,31,0.00,,,0.00,WUHU21623XXSP,2013-07-01 23:04:00,
2013-07-01 16:09:00,99.1,63.2,29.99,WSW,247,1.8,3.6,31,0.00,,,0.00,WUHU21623XXSP,2013-07-01 23:09:00,
2013-07-01 16:15:00,99.0,63.0,29.99,WSW,247,6.5,6.5,31,0.00,,,0.00,WUHU21623XXSP,2013-07-01 23:15:00,
2013-07-01 16:21:00,98.8,62.0,29.99,WSW,247,7.2,7.2,30,0.00,,,0.00,WUHU21623XXSP,2013-07-01 23:21:00,
2013-07-01 16:26:00,98.6,61.9,29.99,WSW,247,6.5,7.2,30,0.00,,,0.00,WUHU21623XXSP,2013-07-01 23:26:00,
2013-07-01 16:31:00,98.4,60.6,29.99,WSW,247,3.4,9.6,29,0.00,,,0.00,WUHU21623XXSP,2013-07-01 23:31:00,
2013-07-01 16:36:00,98.1,61.4,29.99,WSW,247,3.6,9.6,30,0.00,,,0.00,WUHU21623XXSP,2013-07-01 23:36:00,
2013-07-01 16:41:00,97.7,60.0,29.99,WSW,247,11.0,11.0,29,0.00,,,0.00,WUHU21623XXSP,2013-07-01 23:41:00,
2013-07-01 16:47:00,97.5,60.9,29.99,WSW,247,0.0,11.0,30,0.00,,,0.00,WUHU21623XXSP,2013-07-01 23:47:00,
2013-07-01 16:52:00,97.3,60.7,29.99,WSW,247,2.5,2.5,30,0.00,,,0.00,WUHU21623XXSP,2013-07-01 23:52:00,
2013-07-01 16:57:00,97.0,60.4,29.99,NNE,22,13.0,13.0,30,0.00,,,0.00,WUHU21623XXSP,2013-07-01 23:57:00,
2013-07-01 17:02:00,96.6,60.9,29.99,North,0,3.6,13.0,31,0.00,,,0.00,WUHU21623XXSP,2013-07-02 00:02:00,
2013-07-01 17:08:00,96.3,60.6,29.99,NNW,337,3.1,5.6,31,0.00,,,0.00,WUHU21623XXSP,2013-07-02 00:08:00,
2013-07-01 17:13:00,95.9,60.4,29.99,NNW,337,0.9,5.6,31,0.00,,,0.00,WUHU21623XXSP,2013-07-02 00:13:00,
2013-07-01 17:19:00,95.7,61.0,29.99,NNW,337,0.0,4.5,32,0.00,,,0.00,WUHU21623XXSP,2013-07-02 00:19:00,
2013-07-01 17:24:00,95.7,61.0,29.99,North,0,4.3,4.3,32,0.00,,,0.00,WUHU21623XXSP,2013-07-02 00:24:00,
2013-07-01 17:29:00,95.4,61.5,29.99,WSW,247,4.9,5.1,33,0.00,,,0.00,WUHU21623XXSP,2013-07-02 00:29:00,
2013-07-01 17:35:00,95.2,61.4,29.99,SW,225,3.4,5.1,33,0.00,,,0.00,WUHU21623XXSP,2013-07-02 00:35:00,
2013-07-01 17:40:00,94.8,61.1,29.99,North,0,4.5,4.5,33,0.00,,,0.00,WUHU21623XXSP,2013-07-02 00:40:00,
2013-07-01 17:45:00,94.6,61.7,29.99,WSW,247,0.0,4.5,34,0.00,,,0.00,WUHU21623XXSP,2013-07-02 00:45:00,
2013-07-01 17:50:00,94.3,61.4,29.99,NE,45,2.7,2.7,34,0.00,,,0.00,WUHU21623XXSP,2013-07-02 00:50:00,
2013-07-01 17:56:00,93.7,60.9,29.99,NW,315,11.2,11.2,34,0.00,,,0.00,WUHU21623XXSP,2013-07-02 00:56:00,
2013-07-01 18:01:00,93.4,60.6,29.99,North,0,7.4,11.2,34,0.00,,,0.00,WUHU21623XXSP,2013-07-02 01:01:00,
2013-07-01 18:06:00,93.0,60.3,29.99,NW,315,0.0,7.4,34,0.00,,,0.00,WUHU21623XXSP,2013-07-02 01:06:00,
2013-07-01 18:11:00,92.8,60.9,29.99,WSW,247,2.7,2.7,35,0.00,,,0.00,WUHU21623XXSP,2013-07-02 01:11:00,
2013-07-01 18:17:00,92.5,60.6,29.99,WSW,247,1.6,3.4,35,0.00,,,0.00,WUHU21623XXSP,2013-07-02 01:17:00,
2013-07-01 18:22:00,92.5,60.6,29.99,WSW,247,0.0,3.4,35,0.00,,,0.00,WUHU21623XXSP,2013-07-02 01:22:00,
2013-07-01 18:28:00,92.1,60.3,29.99,WSW,247,4.7,4.7,35,0.00,,,0.00,WUHU21623XXSP,2013-07-02 01:28:00,
2013-07-01 18:33:00,91.9,60.2,29.99,NNW,337,5.8,5.8,35,0.00,,,0.00,WUHU21623XXSP,2013-07-02 01:33:00,
2013-07-01 18:38:00,91.6,60.7,29.99,WSW,247,2.7,5.8,36,0.00,,,0.00,WUHU21623XXSP,2013-07-02 01:38:00,
2013-07-01 18:43:00,91.2,59.6,29.99,WSW,247,0.0,2.7,35,0.00,,,0.00,WUHU21623XXSP,2013-07-02 01:43:00,
2013-07-01 18:49:00,91.0,60.2,30.00,WSW,247,3.8,3.8,36,0.00,,,0.00,WUHU21623XXSP,2013-07-02 01:49:00,
2013-07-01 18:54:00,90.7,60.7,29.99,WSW,247,1.1,3.8,37,0.00,,,0.00,WUHU21623XXSP,2013-07-02 01:54:00,
2013-07-01 18:59:00,90.3,60.3,30.00,WSW,247,2.7,5.8,37,0.00,,,0.00,WUHU21623XXSP,2013-07-02 01:59:00,
2013-07-01 19:04:00,90.3,60.3,30.00,West,270,1.3,5.8,37,0.00,,,0.00,WUHU21623XXSP,2013-07-02 02:04:00,
2013-07-01 19:10:00,90.0,60.8,30.00,WSW,247,9.8,14.5,38,0.00,,,0.00,WUHU21623XXSP,2013-07-02 02:10:00,
2013-07-01 19:15:00,89.8,61.4,30.00,NW,315,0.9,14.5,39,0.00,,,0.00,WUHU21623XXSP,2013-07-02 02:15:00,
2013-07-01 19:20:00,89.4,61.1,30.00,NE,45,6.9,6.9,39,0.00,,,0.00,WUHU21623XXSP,2013-07-02 02:20:00,
2013-07-01 19:26:00,89.1,61.6,30.00,North,0,4.0,6.9,40,0.00,,,0.00,WUHU21623XXSP,2013-07-02 02:26:00,
2013-07-01 19:31:00,88.7,61.3,30.00,North,0,1.8,4.9,40,0.00,,,0.00,WUHU21623XXSP,2013-07-02 02:31:00,
2013-07-01 19:36:00,88.3,61.1,30.00,SSW,202,4.7,5.1,40,0.00,,,0.00,WUHU21623XXSP,2013-07-02 02:36:00,
2013-07-01 19:42:00,88.0,61.4,30.00,NNW,337,2.0,6.9,41,0.00,,,0.00,WUHU21623XXSP,2013-07-02 02:42:00,
2013-07-01 19:47:00,87.6,61.1,30.00,WSW,247,4.5,6.9,41,0.00,,,0.00,WUHU21623XXSP,2013-07-02 02:47:00,
2013-07-01 19:52:00,87.4,60.9,30.01,WSW,247,0.0,4.5,41,0.00,,,0.00,WUHU21623XXSP,2013-07-02 02:52:00,
2013-07-01 19:57:00,87.1,61.2,30.01,West,270,2.7,3.4,42,0.00,,,0.00,WUHU21623XXSP,2013-07-02 02:57:00,
2013-07-01 20:03:00,86.7,61.5,30.01,NNW,337,4.5,8.1,43,0.00,,,0.00,WUHU21623XXSP,2013-07-02 03:03:00,
2013-07-01 20:08:00,86.4,61.2,30.01,North,0,1.1,8.1,43,0.00,,,0.00,WUHU21623XXSP,2013-07-02 03:08:00,
2013-07-01 20:13:00,86.2,61.7,30.01,NW,315,0.0,1.6,44,0.00,,,0.00,WUHU21623XXSP,2013-07-02 03:13:00,
2013-07-01 20:18:00,85.6,61.2,30.01,NNW,337,0.0,0.0,44,0.00,,,0.00,WUHU21623XXSP,2013-07-02 03:18:00,
2013-07-01 20:24:00,85.5,61.7,30.01,North,0,1.1,1.1,45,0.00,,,0.00,WUHU21623XXSP,2013-07-02 03:24:00,
2013-07-01 20:29:00,84.9,61.2,30.02,North,0,2.5,6.3,45,0.00,,,0.00,WUHU21623XXSP,2013-07-02 03:29:00,
2013-07-01 20:34:00,84.7,61.6,30.02,NE,45,3.8,6.3,46,0.00,,,0.00,WUHU21623XXSP,2013-07-02 03:34:00,
2013-07-01 20:39:00,84.4,62.0,30.02,NNW,337,0.0,3.8,47,0.00,,,0.00,WUHU21623XXSP,2013-07-02 03:39:00,
2013-07-01 20:44:00,84.0,61.6,30.02,NNE,22,2.9,2.9,47,0.00,,,0.00,WUHU21623XXSP,2013-07-02 03:44:00,
2013-07-01 20:50:00,83.8,61.4,30.02,North,0,0.0,2.9,47,0.00,,,0.00,WUHU21623XXSP,2013-07-02 03:50:00,
2013-07-01 20:55:00,83.3,61.5,30.03,ENE,67,0.0,1.8,48,0.00,,,0.00,WUHU21623XXSP,2013-07-02 03:55:00,
2013-07-01 21:00:00,83.1,61.4,30.03,East,90,0.0,4.0,48,0.00,,,0.00,WUHU21623XXSP,2013-07-02 04:00:00,
2013-07-01 21:05:00,82.6,61.4,30.03,North,0,0.0,4.0,49,0.00,,,0.00,WUHU21623XXSP,2013-07-02 04:05:00,
2013-07-01 21:11:00,82.2,61.1,30.03,North,0,2.7,3.4,49,0.00,,,0.00,WUHU21623XXSP,2013-07-02 04:11:00,
2013-07-01 21:16:00,82.0,61.6,30.04,NNW,337,0.0,3.4,50,0.00,,,0.00,WUHU21623XXSP,2013-07-02 04:16:00,
2013-07-01 21:21:00,81.7,61.8,30.04,NNW,337,0.0,0.0,51,0.00,,,0.00,WUHU21623XXSP,2013-07-02 04:21:00,
2013-07-01 21:26:00,81.5,61.6,30.04,North,0,0.0,1.3,51,0.00,,,0.00,WUHU21623XXSP,2013-07-02 04:26:00,
2013-07-01 21:32:00,81.1,61.8,30.04,North,0,0.0,1.3,52,0.00,,,0.00,WUHU21623XXSP,2013-07-02 04:32:00,
2013-07-01 21:37:00,80.8,61.5,30.04,East,90,2.7,2.7,52,0.00,,,0.00,WUHU21623XXSP,2013-07-02 04:37:00,
2013-07-01 21:42:00,80.4,61.7,30.05,NW,315,0.0,2.7,53,0.00,,,0.00,WUHU21623XXSP,2013-07-02 04:42:00,
2013-07-01 21:47:00,80.2,61.5,30.05,NNW,337,2.0,2.0,53,0.00,,,0.00,WUHU21623XXSP,2013-07-02 04:47:00,
2013-07-01 21:53:00,79.9,61.7,30.05,West,270,0.0,2.0,54,0.00,,,0.00,WUHU21623XXSP,2013-07-02 04:53:00,
2013-07-01 21:58:00,79.5,61.4,30.05,NNE,22,2.0,2.0,54,0.00,,,0.00,WUHU21623XXSP,2013-07-02 04:58:00,
2013-07-01 22:03:00,79.3,61.2,30.06,WSW,247,0.0,2.0,54,0.00,,,0.00,WUHU21623XXSP,2013-07-02 05:03:00,
2013-07-01 22:08:00,79.2,61.6,30.06,NNE,22,0.0,0.0,55,0.00,,,0.00,WUHU21623XXSP,2013-07-02 05:08:00,
2013-07-01 22:13:00,79.0,61.4,30.06,NNE,22,0.0,0.0,55,0.00,,,0.00,WUHU21623XXSP,2013-07-02 05:13:00,
2013-07-01 22:19:00,78.6,61.1,30.06,NNW,337,0.0,0.0,55,0.00,,,0.00,WUHU21623XXSP,2013-07-02 05:19:00,
2013-07-01 22:24:00,78.6,61.1,30.06,NNW,337,0.0,0.0,55,0.00,,,0.00,WUHU21623XXSP,2013-07-02 05:24:00,
2013-07-01 22:29:00,78.1,61.1,30.06,WSW,247,0.0,0.0,56,0.00,,,0.00,WUHU21623XXSP,2013-07-02 05:29:00,
2013-07-01 22:34:00,77.9,60.9,30.06,WSW,247,0.0,0.0,56,0.00,,,0.00,WUHU21623XXSP,2013-07-02 05:34:00,
2013-07-01 22:40:00,77.5,60.5,30.06,WSW,247,0.0,0.0,56,0.00,,,0.00,WUHU21623XXSP,2013-07-02 05:40:00,
2013-07-01 22:45:00,77.4,60.9,30.06,WSW,247,0.0,0.0,57,0.00,,,0.00,WUHU21623XXSP,2013-07-02 05:45:00,
2013-07-01 22:50:00,77.0,60.5,30.06,WSW,247,0.0,0.0,57,0.00,,,0.00,WUHU21623XXSP,2013-07-02 05:50:00,
2013-07-01 22:55:00,76.8,60.4,30.06,WSW,247,0.0,0.0,57,0.00,,,0.00,WUHU21623XXSP,2013-07-02 05:55:00,
2013-07-01 23:01:00,76.3,59.9,30.06,WSW,247,0.0,0.0,57,0.00,,,0.00,WUHU21623XXSP,2013-07-02 06:01:00,
2013-07-01 23:06:00,76.1,59.7,30.06,WSW,247,0.0,0.0,57,0.00,,,0.00,WUHU21623XXSP,2013-07-02 06:06:00,
2013-07-01 23:11:00,75.9,59.6,30.06,WSW,247,0.0,0.0,57,0.00,,,0.00,WUHU21623XXSP,2013-07-02 06:11:00,
2013-07-01 23:16:00,75.6,59.3,30.06,WSW,247,0.0,0.0,57,0.00,,,0.00,WUHU21623XXSP,2013-07-02 06:16:00,
2013-07-01 23:21:00,75.0,59.3,30.06,WSW,247,0.0,0.0,58,0.00,,,0.00,WUHU21623XXSP,2013-07-02 06:21:00,
2013-07-01 23:27:00,74.8,59.1,30.06,WSW,247,0.0,0.0,58,0.00,,,0.00,WUHU21623XXSP,2013-07-02 06:27:00,
2013-07-01 23:32:00,74.5,58.7,30.06,WSW,247,0.0,0.0,58,0.00,,,0.00,WUHU21623XXSP,2013-07-02 06:32:00,
2013-07-01 23:37:00,73.9,58.2,30.06,WSW,247,0.0,0.0,58,0.00,,,0.00,WUHU21623XXSP,2013-07-02 06:37:00,
2013-07-01 23:42:00,73.6,57.8,30.07,WSW,247,0.0,0.0,58,0.00,,,0.00,WUHU21623XXSP,2013-07-02 06:42:00,
2013-07-01 23:48:00,73.2,57.0,30.08,WSW,247,0.0,0.0,57,0.00,,,0.00,WUHU21623XXSP,2013-07-02 06:48:00,
2013-07-01 23:53:00,73.0,56.8,30.08,WSW,247,0.0,0.0,57,0.00,,,0.00,WUHU21623XXSP,2013-07-02 06:53:00,
2013-07-01 23:58:00,72.7,56.0,30.08,WSW,247,0.0,0.0,56,0.00,,,0.00,WUHU21623XXSP,2013-07-02 06:58:00,